Temp
72 72 71 71 71 71 70 70 70 70 71 72 72 73 74 78 78 77 76 77 77 76 76 75 74 75 75 73 73 74 72 71 67 67 69 69 68 68 68 69 68 67 65
75 73 70 72 71 69 70 70 71 71 72 72 73 74 75 78 78 78 78 79 78 76 75 75 75 77 74 73 73 72 71 71 69 65 66 66 66 68 67 67 68 70 68
76 74 70 68 68 68 69 69 71 71 71 73 74 74 75 77 77 79 79 78 78 76 76 76 76 74 73 72 72 72 71 72 70 68 65 67 65 66 64 64 65 66 68
75 74 70 69 67 67 68 69 70 71 70 71 73 76 77 79 79 81 79 78 77 77 77 77 76 75 73 72 71 71 71 69 68 66 65 64 64 65 65 62 62 64 65
71 69 69 69 69 68 67 67 69 70 71 72 72 76 77 78 82 81 80 78 76 77 77 77 76 74 70 72 72 70 70 68 67 65 63 63 63 62 61 62 62 61 62
72 71 71 70 68 67 65 65 65 66 69 70 70 72 74 80 68 61 74 77 76 76 75 76 72 64 61 57 56 57 67 68 66 64 63 62 63 63 64 62 61 59 57
71 71 71 70 68 66 65 64 64 63 65 67 68 70 73 76 62 56 62 76 76 76 75 73 72 74 67 65 55 56 55 56 60 66 64 64 63 64 63 63 61 60 61
69 69 70 68 65 64 63 62 61 61 62 64 68 69 72 76 59 52 58 76 75 75 75 74 72 70 71 71 67 67 67 64 63 67 65 65 66 66 65 63 62 61 61
65 66 67 68 64 63 61 60 61 60 60 62 67 68 70 73 51 51 61 75 74 74 75 74 73 71 57 55 70 68 67 62 51 50 51 49 48 49 59 62 60 59 57
64 64 65 65 63 61 60 59 59 59 60 63 65 69 68 73 49 50 66 74 72 72 73 70 59 69 49 53 69 68 65 64 65 63 61 57 54 55 51 63 61 59 58
61 61 59 58 56 56 57 58 57 57 59 61 64 68 72 72 60 50 59 74 74 73 72 69 65 49 48 47 52 67 64 66 59 64 63 63 63 63 62 62 64 62 59
58 56 54 54 53 54 53 55 56 56 58 60 63 67 70 68 56 51 56 64 62 73 72 72 56 44 44 45 55 49 50 59 65 62 62 62 61 61 63 63 64 65 63
53 52 52 52 52 52 52 52 54 57 58 61 64 66 67 66 58 49 50 54 57 72 74 58 44 43 44 47 45 45 48 64 65 62 60 59 60 64 65 64 65 65 64
51 52 53 56 52 53 54 56 55 59 60 63 65 66 65 62 61 61 60 58 51 53 50 52 53 53 55 54 54 54 65 65 63 62 63 63 65 63 61 63 62 62 61
53 55 61 55 53 53 54 56 60 64 65 66 67 67 65 64 68 62 65 69 68 60 60 62 63 63 63 63 64 64 65 65 63 63 62 62 63 61 59 62 63 62 62
54 60 62 59 58 57 58 56 43 52 50 52 54 66 69 58 50 49 49 49 49 51 65 65 64 64 63 62 64 64 64 61 64 63 62 62 61 61 59 60 61 61 60
58 59 61 60 60 59 59 59 54 50 46 47 48 50 53 47 46 46 47 47 48 54 67 65 63 63 63 63 65 66 64 66 65 64 62 61 61 60 57 57 58 59 59
59 51 65 65 64 64 64 63 63 62 60 57 47 49 45 44 43 44 45 51 62 62 67 64 63 63 65 66 66 65 65 66 66 64 63 61 60 59 59 57 57 58 56
58 59 63 67 68 67 70 67 65 62 57 53 53 48 43 41 43 45 49 68 67 67 66 65 63 63 66 67 67 67 67 66 65 64 62 61 61 59 59 59 58 46 49
60 50 54 66 70 69 71 68 66 63 62 60 57 55 56 58 62 64 68 69 68 69 67 66 66 66 67 67 67 67 66 65 65 63 62 62 62 62 60 60 60 56 57
58 61 48 67 68 68 67 67 67 65 62 59 57 58 46 66 66 68 67 67 68 67 68 68 68 66 68 67 67 67 67 66 66 65 64 64 63 62 62 61 62 60 57
59 63 68 68 68 72 72 72 70 66 63 61 59 54 39 71 68 64 65 64 63 63 67 66 66 68 66 66 67 64 64 65 66 65 66 65 65 63 62 62 62 62 59
61 64 65 66 67 59 68 70 70 68 66 65 64 64 63 61 60 60 60 59 57 56 57 60 62 61 60 61 60 60 62 62 65 66 65 63 63 63 63 60 60 59 59
66 64 64 62 66 67 66 68 67 60 68 66 62 59 56 55 54 54 54 54 50 48 48 48 49 51 53 54 53 52 54 57 65 66 63 61 60 58 61 59 60 59 57
67 66 64 63 65 66 67 65 63 64 62 59 56 53 51 49 47 46 47 45 44 43 43 43 45 45 45 47 47 48 38 38 55 49 62 58 56 54 54 53 53 52 52
67 65 65 67 67 65 63 61 59 57 54 52 50 49 48 45 45 44 43 42 41 41 42 41 42 44 42 41 41 37 37 38 46 41 57 54 51 49 49 49 49 49 49
MSLP
1003.11 1003.54 1003.82 1003.99 1003.90 1003.76 1003.57 1003.41 1003.34 1003.43 1003.34 1003.11 1003.49 1003.35 1003.22 1002.52 1002.15 1002.67 1002.90 1003.53 1004.07 1004.29 1004.46 1004.72 1005.17 1005.03 1005.45 1005.46 1005.72 1006.15 1006.19 1006.50 1007.26 1007.68 1007.89 1008.48 1008.87 1009.08 1009.07 1008.92 1009.23 1009.46 1009.57
1002.08 1002.61 1003.09 1003.33 1003.41 1003.44 1003.46 1003.18 1003.21 1002.76 1002.75 1002.71 1002.67 1002.47 1002.47 1002.07 1001.63 1001.83 1002.41 1002.69 1002.93 1003.31 1003.86 1004.28 1004.00 1004.26 1005.03 1004.94 1005.47 1005.80 1005.90 1006.37 1006.89 1007.50 1008.23 1008.59 1008.83 1009.01 1009.02 1009.18 1009.34 1009.29 1009.27
1001.11 1001.59 1002.07 1002.65 1003.23 1003.41 1003.14 1002.97 1002.71 1002.68 1002.53 1002.07 1001.93 1001.79 1001.91 1001.17 1001.23 1001.27 1001.58 1002.07 1001.64 1002.33 1003.03 1003.73 1002.88 1003.79 1004.48 1004.57 1005.15 1005.48 1005.54 1006.29 1006.64 1007.22 1007.85 1008.20 1008.73 1008.92 1009.29 1009.50 1009.52 1009.49 1009.43
1000.41 1000.97 1001.15 1001.58 1002.17 1002.65 1002.92 1002.64 1002.46 1002.17 1001.87 1001.73 1001.47 1000.84 1000.66 1000.23 999.99 1000.07 1000.11 1000.57 1000.94 1001.32 1002.31 1002.43 1002.47 1003.27 1003.85 1004.25 1004.87 1005.24 1005.50 1006.15 1006.45 1006.92 1007.66 1008.14 1008.51 1008.79 1009.13 1009.61 1009.73 1009.72 1009.61
999.67 999.99 1000.88 1000.96 1001.27 1001.63 1002.01 1001.91 1001.63 1001.25 1000.95 1001.00 1000.81 1000.09 999.50 999.41 998.95 998.69 999.00 999.55 1000.43 1000.92 1001.69 1001.54 1001.96 1002.73 1003.29 1003.80 1004.43 1004.93 1005.39 1005.94 1006.35 1006.93 1007.50 1007.95 1008.39 1008.79 1009.08 1009.37 1009.59 1009.89 1009.83
998.73 999.01 999.51 1000.03 1000.41 1000.95 1001.28 1001.30 1001.11 1000.87 1000.46 1000.04 999.86 999.62 998.78 998.13 998.03 998.28 998.00 998.83 999.81 1000.63 1000.82 1001.45 1001.65 1002.77 1003.35 1003.70 1004.15 1004.71 1004.98 1005.48 1006.21 1006.77 1007.21 1007.55 1007.83 1008.21 1008.38 1008.96 1009.40 1009.79 1009.99
997.80 998.02 998.33 998.91 999.50 1000.08 1000.65 1000.85 1000.58 1000.50 1000.37 999.59 999.03 998.91 998.15 997.47 997.35 997.92 997.45 998.29 999.16 999.77 1000.26 1000.93 1001.91 1002.35 1003.15 1003.77 1004.64 1004.86 1005.21 1005.51 1005.91 1006.37 1006.77 1007.09 1007.42 1007.57 1007.79 1008.33 1008.85 1009.12 1009.27
997.11 997.04 997.37 997.76 998.49 999.18 999.69 1000.09 1000.17 1000.08 999.75 999.43 998.39 998.07 997.52 996.48 996.47 997.35 997.06 997.33 998.80 999.47 999.73 1000.69 1001.51 1002.08 1002.61 1003.36 1004.36 1004.89 1005.30 1005.77 1006.13 1006.28 1006.50 1006.78 1006.95 1006.93 1007.25 1007.53 1008.15 1008.89 1009.23
995.88 995.92 996.09 996.41 997.03 997.81 998.30 998.79 999.15 999.12 998.86 998.61 998.19 997.24 996.89 995.95 996.44 996.63 996.76 997.27 998.49 999.13 999.53 1000.41 1001.06 1001.79 1002.55 1003.19 1003.63 1004.49 1004.98 1005.87 1006.21 1006.31 1006.62 1006.89 1006.97 1006.97 1007.19 1007.58 1008.26 1008.73 1009.33
994.20 994.25 994.47 994.76 995.31 996.16 997.09 997.67 997.97 998.22 997.89 997.73 997.13 996.31 995.74 995.37 995.92 995.77 996.01 997.01 998.22 998.84 999.61 1000.47 1000.90 1001.75 1002.63 1002.83 1003.65 1004.09 1004.75 1005.37 1005.67 1006.24 1006.73 1006.99 1007.13 1007.36 1007.43 1007.53 1007.88 1008.35 1008.75
993.30 993.29 993.52 993.88 994.45 995.29 995.81 996.27 996.83 996.95 996.94 996.36 995.83 994.96 994.45 994.09 994.61 994.86 995.30 996.81 997.87 998.41 999.77 1000.72 1001.53 1001.95 1002.28 1003.01 1003.83 1004.03 1004.40 1004.82 1005.57 1005.93 1006.51 1006.77 1007.09 1007.32 1007.52 1007.52 1007.72 1007.96 1008.30
992.21 991.95 991.93 992.21 992.52 993.32 994.16 994.44 995.05 995.50 995.28 994.74 994.40 993.40 992.99 993.27 994.31 995.17 995.53 996.14 997.09 998.15 999.23 1000.63 1001.88 1002.23 1002.99 1003.67 1004.01 1004.39 1004.53 1004.82 1005.38 1006.09 1006.62 1006.77 1006.91 1007.16 1007.23 1007.30 1007.54 1007.62 1007.74
990.38 989.03 987.46 986.91 987.53 989.76 991.19 992.24 993.11 993.17 993.07 992.72 992.28 991.93 992.56 993.65 994.93 994.73 995.67 996.15 996.97 997.99 998.57 1000.55 1001.57 1002.53 1003.65 1004.13 1004.25 1004.50 1004.59 1004.75 1005.19 1005.85 1006.43 1006.66 1006.75 1006.72 1006.88 1007.11 1007.24 1007.26 1007.47
988.22 985.38 982.59 980.06 980.83 985.68 988.62 989.99 990.57 990.37 990.59 990.60 990.68 991.23 991.98 993.35 994.60 995.12 996.47 997.33 998.03 999.41 1000.27 1001.11 1002.10 1003.17 1003.30 1003.95 1004.61 1004.76 1004.43 1004.63 1005.03 1005.55 1005.87 1006.07 1006.31 1006.67 1007.01 1007.09 1007.28 1007.40 1007.63
986.46 983.76 981.31 979.77 980.30 984.35 987.06 988.11 988.34 988.22 988.13 988.36 989.03 989.99 991.14 992.75 993.54 994.75 996.03 997.11 998.21 999.19 1000.00 1001.64 1002.73 1003.07 1003.43 1003.85 1004.13 1004.21 1004.37 1004.64 1005.04 1005.41 1005.79 1006.15 1006.49 1006.92 1007.11 1007.07 1007.17 1007.32 1007.39
984.92 982.68 982.05 982.21 983.07 984.61 985.71 986.74 987.18 986.90 987.37 987.75 988.53 989.13 990.98 991.85 993.77 995.24 996.42 997.14 998.06 999.15 1000.47 1001.40 1001.91 1002.30 1002.87 1003.42 1003.47 1003.82 1004.26 1004.56 1004.96 1005.38 1005.77 1006.18 1006.55 1006.89 1007.19 1007.32 1007.40 1007.47 1007.59
984.35 982.93 982.40 982.63 983.23 984.11 985.01 985.83 986.62 987.89 987.81 988.17 988.28 990.11 991.04 992.54 994.62 995.74 996.58 997.59 998.90 999.60 1000.10 1000.92 1001.49 1002.06 1002.66 1003.04 1003.02 1003.32 1003.86 1004.30 1004.81 1005.28 1005.73 1006.23 1006.56 1006.75 1007.24 1007.51 1007.64 1007.70 1007.76
984.35 983.33 982.60 982.72 983.27 983.71 984.08 985.52 985.44 987.47 988.72 989.89 991.03 991.61 992.61 993.87 995.31 996.61 997.63 998.57 999.76 999.52 999.96 1000.72 1001.46 1002.00 1002.24 1002.46 1002.64 1003.07 1003.61 1004.10 1004.52 1005.18 1005.55 1006.08 1006.49 1006.80 1007.11 1007.36 1007.59 1007.74 1007.92
984.29 984.02 983.09 982.88 983.26 983.77 984.16 985.52 985.91 988.33 989.79 991.27 992.33 993.72 994.43 995.31 996.68 997.43 997.66 998.38 998.91 999.38 1000.02 1000.77 1001.39 1001.84 1002.05 1002.26 1002.58 1003.10 1003.58 1004.01 1004.45 1005.01 1005.40 1005.88 1006.27 1006.65 1006.99 1007.21 1007.45 1007.70 1007.77
985.13 984.65 984.38 983.98 984.23 984.91 985.11 985.79 987.14 988.75 989.98 991.23 993.02 994.62 995.66 996.45 997.56 998.13 998.08 998.23 998.67 999.16 999.98 1000.48 1001.03 1001.61 1001.87 1002.18 1002.69 1003.13 1003.55 1003.98 1004.51 1004.92 1005.20 1005.61 1005.99 1006.37 1006.73 1006.99 1007.22 1007.47 1007.59
986.13 985.93 985.64 985.17 985.38 985.93 986.61 987.31 988.22 989.52 991.11 992.87 994.29 995.27 995.79 996.43 997.27 997.57 997.98 998.40 998.91 999.33 999.76 1000.29 1000.95 1001.45 1001.79 1002.19 1002.64 1003.15 1003.54 1003.83 1004.30 1004.60 1004.98 1005.31 1005.69 1006.05 1006.42 1006.65 1006.89 1007.14 1007.37
987.07 986.71 986.35 986.13 986.49 987.08 987.70 988.54 989.65 991.03 992.45 993.69 995.13 996.12 996.34 996.59 997.28 998.02 998.52 999.16 999.69 999.99 999.90 1000.47 1001.11 1001.49 1001.90 1002.40 1002.83 1003.32 1003.65 1003.91 1004.12 1004.27 1004.63 1004.90 1005.43 1005.89 1006.23 1006.47 1006.68 1006.92 1007.24
987.47 987.19 987.15 987.27 987.45 987.88 988.62 989.47 990.63 991.79 993.07 994.28 995.39 996.19 996.87 997.86 998.61 999.23 999.80 1000.41 1001.13 1001.61 1001.93 1002.07 1002.36 1002.79 1003.15 1003.44 1003.76 1003.91 1004.00 1004.18 1004.11 1004.36 1004.71 1005.14 1005.49 1005.92 1006.17 1006.47 1006.72 1007.04 1007.26
986.72 987.35 987.92 987.89 988.57 989.19 989.83 990.51 991.48 992.58 993.77 994.67 996.05 997.31 998.35 999.29 1000.02 1000.77 1001.29 1001.91 1002.83 1003.32 1003.63 1003.90 1004.11 1004.31 1004.44 1004.67 1004.77 1004.87 1004.91 1004.69 1004.35 1004.68 1004.95 1005.33 1005.74 1006.06 1006.37 1006.53 1007.07 1007.35 1007.53
987.18 988.01 988.75 989.20 989.60 990.51 991.14 992.11 993.21 994.16 995.22 996.44 997.71 998.88 999.91 1000.78 1001.64 1002.39 1003.05 1003.74 1004.21 1004.50 1004.94 1005.21 1005.35 1005.52 1005.55 1005.64 1005.56 1005.58 1005.52 1005.20 1005.07 1005.25 1005.53 1006.03 1006.50 1006.77 1007.07 1007.52 1007.80 1008.07 1008.25
987.79 988.71 989.17 989.70 990.50 991.49 992.51 993.64 994.78 995.91 997.19 998.45 999.53 1000.50 1001.33 1002.11 1002.90 1003.72 1004.42 1004.84 1005.27 1005.73 1006.13 1006.43 1006.53 1006.42 1006.45 1006.45 1006.47 1006.37 1006.09 1005.97 1006.05 1006.14 1006.36 1006.88 1007.38 1007.85 1008.07 1008.33 1008.47 1008.65 1008.94
Wind_Speed
7 7 7 8 10 10 8 8 9 9 10 10 13 15 13 9 11 12 15 15 17 16 11 11 12 9 5 4 4 4 3 2 3 1 3 4 2 1 3 2 4 4 4
5 6 7 5 7 9 10 11 11 11 10 12 13 15 16 14 9 13 16 16 17 14 12 12 13 8 7 6 4 5 4 2 2 6 3 3 2 2 2 0 2 3 2
10 10 7 6 6 12 10 11 12 12 12 13 15 16 18 16 15 14 16 16 13 13 13 16 10 10 8 5 4 4 4 3 3 3 3 2 2 2 3 2 2 1 3
11 11 6 5 6 9 11 10 12 14 15 14 18 18 18 17 16 18 15 14 13 13 16 13 9 10 9 8 6 5 3 3 3 3 4 3 2 2 3 2 1 1 1
6 5 9 6 6 10 13 12 13 14 15 16 18 19 17 17 14 18 16 16 15 16 16 11 9 10 12 10 5 5 6 4 3 3 3 3 3 3 4 4 2 1 1
11 11 9 9 7 9 9 12 13 16 18 17 18 20 17 13 19 18 17 15 16 20 13 11 6 12 12 14 12 8 4 5 5 4 3 4 5 4 4 4 4 3 2
14 13 13 13 12 10 11 14 16 17 17 18 17 19 20 18 19 20 21 15 15 16 12 10 9 8 11 9 8 10 9 8 4 5 4 5 4 6 6 7 5 4 3
15 15 15 13 11 13 14 15 16 16 16 18 18 19 21 16 17 20 22 16 14 14 12 10 9 11 9 10 9 7 7 6 4 3 1 2 3 5 5 5 5 4 4
18 19 19 19 15 13 15 17 16 15 17 18 20 18 22 17 14 21 20 15 13 15 12 10 8 11 12 9 9 8 6 6 5 8 8 5 6 4 6 4 4 4 2
19 20 19 18 18 18 18 19 16 18 20 18 22 20 25 18 16 21 19 13 15 10 10 7 10 12 14 12 4 6 7 8 6 5 3 2 1 3 5 4 5 6 3
11 10 9 12 16 17 20 19 17 18 20 21 21 20 22 15 14 17 22 14 12 11 9 7 4 15 13 11 4 5 5 8 6 5 2 3 4 5 4 4 4 4 4
17 19 22 23 20 19 25 20 21 20 21 20 22 16 15 11 14 10 17 15 15 11 10 8 8 15 12 10 7 9 11 10 5 4 3 3 3 3 4 4 5 4 4
23 30 31 33 30 26 23 21 19 20 18 18 15 14 11 10 8 10 12 19 15 10 10 12 17 16 14 9 9 10 9 4 4 5 4 3 3 3 3 4 4 4 5
28 35 33 28 30 28 18 15 14 15 16 17 15 14 12 12 9 8 10 12 18 13 18 13 10 9 6 9 5 4 3 3 4 3 3 4 2 4 2 3 3 4 3
24 24 6 10 19 20 17 15 15 19 16 16 15 14 15 14 13 13 14 12 12 14 14 10 8 7 7 6 6 6 4 4 4 3 3 3 3 3 1 1 1 2 3
18 6 4 8 10 11 10 5 12 11 17 19 18 17 10 19 21 17 18 23 24 19 10 9 8 7 7 6 6 6 5 5 4 4 3 2 3 4 2 1 1 2 3
7 6 8 10 10 10 11 11 11 17 25 15 21 20 19 21 20 21 24 23 20 14 8 7 7 6 7 6 5 6 6 6 5 4 4 3 3 3 4 2 1 2 2
11 7 6 10 12 12 11 12 13 14 14 12 17 17 22 23 22 22 21 15 7 4 9 8 7 5 6 5 4 4 5 6 4 6 4 4 3 4 2 3 3 4 2
6 7 3 12 12 12 12 13 16 15 14 12 13 15 15 20 20 19 14 9 8 9 8 8 7 4 4 4 4 4 6 4 4 4 4 4 4 4 4 4 4 4 2
10 12 6 8 10 11 11 13 14 15 14 13 12 11 9 12 10 8 6 7 7 8 8 7 7 6 4 4 5 4 5 5 6 4 3 4 4 4 3 3 3 3 3
7 7 5 5 8 11 12 12 13 13 13 12 10 9 10 11 10 8 8 7 7 5 7 6 7 5 5 4 4 4 4 4 6 5 5 4 4 5 5 3 4 4 3
5 4 4 6 10 12 13 13 13 14 14 14 10 6 9 9 8 9 9 9 8 8 5 5 5 3 4 4 5 3 2 5 4 4 3 4 4 3 3 3 3 3 2
5 4 7 7 8 12 12 12 14 14 14 14 12 9 9 11 10 10 10 10 9 9 9 8 7 8 7 8 8 6 6 5 4 5 3 4 3 3 2 2 3 2 2
11 10 8 4 10 12 12 12 13 14 13 14 13 11 11 10 10 12 11 10 9 9 8 8 8 8 6 6 5 5 4 4 3 6 6 5 4 2 4 4 3 4 4
11 11 11 8 11 13 13 13 14 14 13 13 12 11 11 10 11 10 9 9 9 9 11 8 7 9 10 10 8 7 6 9 7 6 7 9 8 8 7 6 7 7 7
14 13 11 11 12 13 13 13 13 13 13 12 11 11 11 11 11 10 9 10 9 10 10 8 10 13 11 9 9 7 9 11 10 11 8 7 8 7 7 8 10 6 6
Wind_Direction
203 217 234 243 269 283 272 267 258 250 256 258 268 273 277 261 211 208 221 229 229 220 202 196 211 202 213 178 188 221 183 158 206 14 104 101 94 253 143 59 136 212 196
219 234 239 283 294 261 266 271 273 263 252 245 255 263 261 260 254 221 229 222 219 204 200 210 203 191 212 179 186 221 175 198 188 149 136 142 160 166 59 111 358 18 237
220 223 203 212 260 264 252 266 276 276 275 272 249 250 253 245 245 235 223 219 211 198 205 215 186 183 196 174 195 204 160 167 137 142 140 123 123 149 98 48 307 1 67
225 256 221 220 239 279 289 273 253 261 262 261 270 243 244 249 234 236 217 219 214 200 213 205 180 190 183 169 183 209 139 163 138 134 144 141 147 140 134 173 196 25 324
244 191 248 230 247 242 259 265 281 265 261 263 265 262 246 239 236 233 207 211 210 214 205 185 181 190 170 173 171 185 174 170 143 150 153 147 182 145 171 193 205 139 356
254 254 257 253 254 266 270 278 277 278 273 256 259 267 245 231 234 226 194 203 206 212 184 185 141 127 117 115 103 101 159 168 154 166 178 188 194 188 168 159 149 166 214
252 248 247 243 238 252 268 276 268 266 271 265 254 257 251 238 230 216 184 198 203 197 171 170 157 143 139 126 109 109 91 91 124 179 196 203 218 195 198 175 174 179 180
257 253 252 248 240 247 254 251 260 267 267 275 260 254 253 239 225 207 182 188 195 185 163 165 166 148 157 155 155 157 152 159 168 177 23 318 215 208 201 208 160 125 77
246 245 244 242 233 235 250 250 248 258 266 266 269 255 249 238 211 194 170 172 183 179 159 163 151 152 160 151 156 170 168 127 98 91 86 69 66 48 142 118 147 144 156
249 247 242 234 236 239 243 246 250 255 256 257 259 252 247 230 197 182 164 165 178 162 152 143 156 160 161 149 174 174 157 153 146 133 137 99 157 108 165 160 150 161 149
272 269 265 236 228 235 244 239 240 246 250 246 246 246 238 207 193 179 154 160 165 152 149 148 118 146 147 135 134 86 127 131 112 117 115 211 187 160 185 207 194 184 164
273 263 250 244 241 244 234 231 240 239 237 237 241 232 226 174 161 194 134 156 149 150 153 147 131 120 115 128 116 131 134 126 134 115 176 210 182 175 199 208 202 201 183
289 272 256 241 224 218 221 226 226 225 223 225 224 213 182 153 138 137 121 151 144 150 143 130 124 120 122 98 123 139 145 155 156 149 184 192 198 209 170 190 197 199 193
274 277 277 263 204 193 199 209 224 214 211 218 202 174 157 145 142 117 117 102 93 91 103 111 127 133 134 121 123 155 176 189 140 167 189 158 173 109 177 181 170 182 197
279 288 350 70 127 165 191 206 213 214 204 196 165 154 144 151 149 137 132 123 122 116 109 121 140 143 141 147 159 168 183 133 135 138 128 122 128 125 154 311 275 197 222
289 292 128 106 124 156 174 151 24 215 174 142 156 146 139 124 124 123 112 114 119 128 129 148 149 152 139 155 162 158 161 155 152 140 120 116 148 149 141 198 337 268 246
335 355 113 129 139 141 155 159 126 80 78 101 107 106 108 122 122 118 119 123 140 140 137 134 136 139 152 168 190 161 162 153 160 157 141 165 201 126 142 151 205 258 323
339 26 130 138 141 140 125 125 113 121 113 93 59 103 111 110 111 114 118 113 123 113 134 138 140 153 160 184 174 145 146 152 165 145 152 155 136 142 153 167 201 217 223
317 21 28 106 110 114 114 114 109 113 98 104 101 74 84 101 118 130 134 135 144 128 131 137 143 155 172 176 130 132 152 152 134 137 140 150 153 142 203 203 179 207 190
3 8 30 97 100 111 98 95 100 103 103 99 102 107 116 117 126 143 146 145 116 125 139 141 149 164 166 144 130 151 120 136 134 144 152 158 162 163 195 174 176 182 198
334 332 347 98 106 95 99 101 101 100 103 104 111 123 119 127 139 141 117 119 125 127 139 139 137 145 169 142 144 142 158 142 157 168 175 168 169 174 175 170 220 161 204
305 300 126 111 112 116 121 114 114 111 116 117 114 116 141 126 101 86 83 77 64 49 60 108 112 118 125 145 141 150 218 152 164 144 125 133 145 134 164 179 207 171 129
252 112 90 98 108 109 107 119 114 117 114 120 125 129 88 85 85 77 83 75 62 55 43 45 62 57 48 46 46 27 58 34 95 108 104 125 115 120 150 146 101 73 46
140 134 110 99 105 101 111 101 101 100 110 103 98 91 84 83 80 73 65 70 68 61 56 54 56 59 58 62 49 45 34 18 24 66 81 95 87 83 86 71 84 97 98
128 119 130 126 111 108 103 95 98 100 91 88 89 87 85 83 82 77 72 74 71 68 60 49 49 56 54 59 57 48 31 47 50 78 81 74 76 69 72 72 74 61 53
122 126 128 113 108 103 103 99 92 91 91 89 91 91 94 91 87 85 85 81 76 71 70 60 55 61 60 52 52 46 58 58 57 60 79 81 79 71 76 81 84 89 96